McKinleyville, CA

11:46 PM PST on February 22, 2017 (GMT -0800)
Arcata

Weather History for KACV - October, 2013

Change the Weather History Date:

Monday, October 28, 2013

  Actual Average Record
Temperature  
Mean Temperature 46 °F -  
Max Temperature 54 °F 57 °F 77 °F (2003)
Min Temperature 39 °F 41 °F 36 °F (2002)
Degree Days  
Heating Degree Days 18    
Moisture  
Dew Point 42 °F    
Average Humidity 89    
Maximum Humidity 100    
Minimum Humidity 75    
Precipitation  
Precipitation 0.01 in - - ()
Sea Level Pressure  
Sea Level Pressure 29.77 in    
Wind  
Wind Speed 3 mph (East)    
Max Wind Speed 6 mph    
Max Gust Speed -    
Visibility 8 miles    
Events      
Averages and records for this station are not official NWS values.
T = Trace of Precipitation, MM = Missing Value Source: NWS Daily Summary

Daily Weather History Graph

Daily Weather History Graph

Search for Another Location

Airport or City:

Trip Planner

Search our weather history database for the weather conditions in past years. The results will help you decide how hot, cold, wet, or windy it might be!

Date:

Astronomy

Oct. 28, 2013 Rise Set
Actual Time 7:42 AM PDT 6:16 PM PDT
Civil Twilight 7:14 AM PDT 6:45 PM PDT
Nautical Twilight 6:42 AM PDT 7:17 PM PDT
Astronomical Twilight 6:10 AM PDT 7:49 PM PDT
Moon 1:38 AM PDT (10/28) 3:04 PM PDT (10/28)
Length of Visible Light 11h 30m
Length of Day
10h 33m
Waning Crescent, 33% of the Moon is Illuminated
Oct 28
Waning Crescent
Nov 3
New
Nov 9
First Quarter
Nov 17
Full
Nov 25
Last Quarter

Hourly Weather History & Observations

Time (PDT) Temp. Windchill Dew Point Humidity Pressure Visibility Wind Dir Wind Speed Gust Speed Precip Events Conditions
12:51 AM 48.2 °F - 44.6 °F 87% 29.78 in 10.0 mi Calm Calm - N/A   Partly Cloudy
12:53 AM 48.9 °F - 44.1 °F 83% 29.80 in 10.0 mi North 3.5 mph - N/A   Partly Cloudy
1:53 AM 48.0 °F - 44.1 °F 86% 29.78 in 10.0 mi North 5.8 mph - N/A   Clear
2:53 AM 44.1 °F 42.5 °F 42.1 °F 93% 29.79 in 9.0 mi East 3.5 mph - N/A   Clear
3:53 AM 41.0 °F - 39.0 °F 93% 29.77 in 8.0 mi Calm Calm - N/A   Clear
4:53 AM 41.0 °F - 39.9 °F 96% 29.76 in 10.0 mi Calm Calm - N/A   Partly Cloudy
5:22 AM 41.0 °F - 39.2 °F 93% 29.74 in 10.0 mi Calm Calm - N/A   Partly Cloudy
5:53 AM 39.9 °F - 39.0 °F 97% 29.76 in 8.0 mi Calm Calm - N/A   Clear
6:46 AM 39.2 °F 37.0 °F 37.4 °F 93% 29.74 in 10.0 mi ESE 3.5 mph - N/A   Scattered Clouds
6:53 AM 39.9 °F 37.8 °F 37.9 °F 93% 29.76 in 4.0 mi ESE 3.5 mph - N/A   Mostly Cloudy
6:56 AM 39.2 °F 35.9 °F 37.4 °F 93% 29.74 in 1.8 mi ESE 4.6 mph - N/A   Mostly Cloudy
7:09 AM 39.2 °F 37.0 °F 37.4 °F 93% 29.74 in 3.0 mi ESE 3.5 mph - N/A   Overcast
7:15 AM 41.0 °F 39.0 °F 39.2 °F 93% 29.74 in 1.8 mi ESE 3.5 mph - N/A   Overcast
7:25 AM 41.0 °F - 39.2 °F 93% 29.74 in 0.8 mi Calm Calm - N/A   Mist
7:36 AM 39.2 °F - 39.2 °F 100% 29.74 in 2.0 mi Calm Calm - N/A   Overcast
7:44 AM 39.2 °F 37.0 °F 37.4 °F 93% 29.74 in 5.0 mi East 3.5 mph - N/A   Overcast
7:53 AM 39.9 °F 37.8 °F 37.9 °F 93% 29.76 in 6.0 mi East 3.5 mph - N/A   Overcast
8:53 AM 45.0 °F 43.5 °F 44.1 °F 97% 29.77 in 8.0 mi SSE 3.5 mph - N/A   Overcast
9:53 AM 46.9 °F - 45.0 °F 93% 29.78 in 7.0 mi ESE 4.6 mph - N/A   Overcast
10:53 AM 48.9 °F - 45.0 °F 86% 29.77 in 10.0 mi South 5.8 mph - N/A   Overcast
11:26 AM 51.8 °F - 46.4 °F 82% 29.75 in 10.0 mi Variable 3.5 mph - N/A   Scattered Clouds
11:53 AM 54.0 °F - 46.0 °F 75% 29.76 in 10.0 mi Variable 3.5 mph - N/A   Partly Cloudy
12:53 PM 53.1 °F - 46.0 °F 77% 29.75 in 9.0 mi WNW 5.8 mph - N/A   Clear
1:53 PM 53.1 °F - 46.0 °F 77% 29.75 in 10.0 mi WNW 4.6 mph - N/A   Clear
2:53 PM 53.1 °F - 46.0 °F 77% 29.74 in 10.0 mi NW 4.6 mph - N/A   Clear
3:53 PM 53.1 °F - 46.0 °F 77% 29.75 in 10.0 mi West 5.8 mph - N/A   Clear
4:53 PM 52.0 °F - 46.0 °F 80% 29.76 in 10.0 mi NW 4.6 mph - N/A   Clear
5:53 PM 50.0 °F - 45.0 °F 83% 29.77 in 8.0 mi WNW 5.8 mph - N/A   Clear
6:53 PM 46.0 °F - 43.0 °F 89% 29.78 in 9.0 mi Calm Calm - N/A   Clear
7:53 PM 45.0 °F 43.5 °F 42.1 °F 90% 29.81 in 8.0 mi SE 3.5 mph - N/A   Clear
8:53 PM 43.0 °F - 39.9 °F 89% 29.81 in 10.0 mi Calm Calm - N/A   Clear
9:53 PM 44.1 °F 41.5 °F 41.0 °F 89% 29.83 in 10.0 mi SE 4.6 mph - N/A   Clear
10:53 PM 44.1 °F 41.5 °F 42.1 °F 93% 29.84 in 9.0 mi ESE 4.6 mph - N/A   Clear
11:53 PM 44.1 °F 42.5 °F 42.1 °F 93% 29.84 in 10.0 mi East 3.5 mph - 0.01 in   Clear